Weather History for Cut Bank, MT

Change the Weather History Date:

Monday, December 19, 2011

  Actual Average Record
Temperature  
Mean Temperature 27 °F 22 °F  
Max Temperature 39 °F 32 °F 61 °F (1954)
Min Temperature 14 °F 11 °F -24 °F (1949)
Degree Days  
Heating Degree Days 38 44  
Month to date heating degree days 772 802  
Since 1 July heating degree days 2745 3065  
Cooling Degree Days 0 0  
Month to date cooling degree days 0 0  
Year to date cooling degree days 151 162  
Moisture  
Dew Point 19 °F    
Average Humidity 68    
Maximum Humidity 92    
Minimum Humidity 44    
Precipitation  
Precipitation 0.00 in 0.01 in 0.15 in (1925)
Month to date precipitation 0.01 0.13  
Year to date precipitation 5.95 10.81  
Snow  
Snow 0.00 in - - ()
Snow Depth 1.00 in    
Sea Level Pressure  
Sea Level Pressure 30.14 in    
Wind  
Wind Speed 16 mph (SW)    
Max Wind Speed 36 mph    
Max Gust Speed 45 mph    
Visibility 7 miles    
Events Fog    
T = Trace of Precipitation, MM = Missing Value Source: NWS Daily Summary

Daily Weather History Graph

Daily Weather History Graph

Search for Another Location

Airport:

Trip Planner

Search our weather history database for the weather conditions in past years. The results will help you decide how hot, cold, wet, or windy it might be!

Date:

Astronomy

Dec. 19, 2011 Rise Set
Actual Time 8:17 AM MST 4:35 PM MST
Civil Twilight 7:40 AM MST 5:12 PM MST
Nautical Twilight 7:00 AM MST 5:52 PM MST
Astronomical Twilight 6:22 AM MST 6:30 PM MST
Moon 2:14 AM MST (12/19) 12:51 PM MST (12/19)
Length of Visible Light 9h 31m
Length of Day
8h 17m
Waning Crescent, 30% of the Moon is Illuminated
Dec 19
Waning Crescent
Dec 24
New
Dec 31
First Quarter
Jan 9
Full
Jan 16
Last Quarter

Hourly Weather History & Observations

Time (MST) Temp. Windchill Dew Point Humidity Pressure Visibility Wind Dir Wind Speed Gust Speed Precip Events Conditions
12:12 AM 26.6 °F 22.6 °F 24.8 °F 93% 30.22 in 10.0 mi NW 3.5 mph - N/A   Overcast
12:56 AM 25.0 °F 20.7 °F 23.0 °F 92% 30.33 in 10.0 mi NNW 3.5 mph - N/A   Overcast
1:22 AM 23.0 °F - 21.2 °F 93% 30.21 in 10.0 mi Calm Calm - N/A   Partly Cloudy
1:41 AM 21.2 °F 16.4 °F 21.2 °F 100% 30.20 in 1.5 mi SSW 3.5 mph - N/A   Clear
1:44 AM 21.2 °F 14.9 °F 21.2 °F 100% 30.20 in 0.8 mi South 4.6 mph - N/A   Mist
1:51 AM 21.2 °F 14.9 °F 19.4 °F 93% 30.20 in 0.2 mi South 4.6 mph - N/A Fog Light Freezing Fog
1:52 AM 21.2 °F 13.6 °F 19.4 °F 93% 30.20 in 0.2 mi SSW 5.8 mph - N/A Fog Light Freezing Fog
2:45 AM 19.4 °F 12.8 °F 17.6 °F 93% 30.19 in 0.8 mi WSW 4.6 mph - N/A   Mist
2:53 AM 19.4 °F 12.8 °F 17.6 °F 93% 30.19 in 1.2 mi WSW 4.6 mph - N/A   Overcast
2:56 AM 19.9 °F 13.4 °F 18.0 °F 92% 30.32 in 1.2 mi WSW 4.6 mph - N/A   Overcast
3:14 AM 21.2 °F 16.4 °F 19.4 °F 93% 30.18 in 3.0 mi WSW 3.5 mph - N/A   Scattered Clouds
3:44 AM 21.2 °F - 19.4 °F 93% 30.17 in 8.0 mi Calm Calm - N/A   Mostly Cloudy
3:51 AM 21.2 °F - 19.4 °F 93% 30.17 in 7.0 mi Calm Calm - N/A   Scattered Clouds
3:56 AM 21.9 °F - 19.0 °F 89% 30.29 in 5.0 mi Calm Calm - N/A   Scattered Clouds
4:09 AM 21.2 °F 16.4 °F 19.4 °F 93% 30.16 in 1.5 mi South 3.5 mph - N/A   Partly Cloudy
4:14 AM 19.4 °F - 17.6 °F 93% 30.16 in 0.8 mi Calm Calm - N/A   Mist
4:51 AM 17.6 °F 10.7 °F 15.8 °F 93% 30.15 in 1.5 mi South 4.6 mph - N/A   Scattered Clouds
4:54 AM 17.6 °F - 15.8 °F 93% 30.15 in 3.0 mi Calm Calm - N/A   Scattered Clouds
4:56 AM 17.1 °F - 14.0 °F 88% 30.28 in 4.0 mi Calm Calm - N/A   Scattered Clouds
5:56 AM 19.0 °F 9.0 °F 16.0 °F 88% 30.25 in 10.0 mi SSE 8.1 mph - N/A   Clear
6:56 AM 15.1 °F 5.2 °F 12.0 °F 88% 30.25 in 10.0 mi SE 6.9 mph - N/A   Clear
7:56 AM 15.1 °F 4.2 °F 12.0 °F 88% 30.22 in 10.0 mi SE 8.1 mph - N/A   Clear
8:56 AM 16.0 °F 4.4 °F 12.0 °F 84% 30.22 in 10.0 mi SE 9.2 mph - N/A   Clear
9:56 AM 19.0 °F 12.3 °F 17.1 °F 92% 30.21 in 10.0 mi SSE 4.6 mph - N/A   Clear
10:56 AM 26.6 °F 22.6 °F 24.8 °F 93% 30.06 in 10.0 mi Variable 3.5 mph - N/A   Clear
11:56 AM 36.0 °F 26.0 °F 26.1 °F 67% 30.12 in 10.0 mi WSW 17.3 mph - N/A   Clear
12:56 PM 37.9 °F 26.3 °F 26.1 °F 62% 30.09 in 10.0 mi WSW 26.5 mph 29.9 mph N/A   Clear
1:56 PM 37.9 °F 27.6 °F 24.1 °F 57% 30.08 in 10.0 mi WSW 20.7 mph 28.8 mph N/A   Clear
2:56 PM 37.4 °F 25.9 °F 23.0 °F 56% 29.95 in 10.0 mi WSW 25.3 mph 35.7 mph N/A   Clear
3:56 PM 37.9 °F 27.9 °F 21.0 °F 51% 30.03 in 10.0 mi WSW 19.6 mph 27.6 mph N/A   Clear
4:56 PM 37.0 °F 25.9 °F 19.9 °F 50% 30.03 in 10.0 mi WSW 23.0 mph 34.5 mph N/A   Clear
5:56 PM 37.4 °F 26.9 °F 17.6 °F 45% 29.92 in 10.0 mi WSW 20.7 mph 32.2 mph N/A   Clear
6:56 PM 37.0 °F 25.1 °F 19.0 °F 48% 30.01 in 10.0 mi WSW 26.5 mph 34.5 mph N/A   Clear
7:56 PM 37.0 °F 23.9 °F 19.9 °F 50% 30.01 in 10.0 mi West 33.4 mph 42.6 mph N/A   Clear
8:56 PM 37.0 °F 24.7 °F 19.9 °F 50% 29.99 in 10.0 mi West 28.8 mph 39.1 mph N/A   Clear
9:56 PM 37.0 °F 25.4 °F 19.9 °F 50% 29.97 in 10.0 mi WSW 25.3 mph 31.1 mph N/A   Clear
10:56 PM 37.9 °F 25.9 °F 21.0 °F 51% 29.91 in 10.0 mi WSW 28.8 mph 36.8 mph N/A   Clear
11:56 PM 39.0 °F 28.5 °F 21.9 °F 50% 29.86 in 10.0 mi WSW 23.0 mph 28.8 mph N/A   Clear